x

St. Joseph, Mi (sjom4) Weather Station

7:50am - Fri 12th Feb 2016 All times are CST. -6 hours from GMT.

  • Wind
    17mph, 23mph gusts
  • Air Temp 25°f
  • Sea Pressure 1020mb
  • St. Joseph, Mi
  • St. Joseph, Mi

More Historic Weather Station data

Upgrade to MSW Pro to gain access to the past 30 days of data for over 8000 Wavebouys and Weather Stations around the globe.

Join Pro

Comparision Forecast

View Surf forecast
   
Fri 02/12 7:50am 17 23 mph 1020mb 25f
7:40am 17 24 mph 1019mb 24f
7:30am 18 24 mph 1019.3mb 25f
7:20am 18 23 mph 1020mb 25f
7:13am 17 25 mph 1019.3mb 24f
7:10am 20 24 mph 1019.3mb 24f
7:00am 20 25 mph 1019.3mb 25f
6:50am 18 24 mph 1020mb 25f
6:40am 17 23 mph 1020mb 25f
6:30am 18 24 mph 1019.6mb 25f
6:20am 20 23 mph 1020.3mb 25f
6:13am 18 25 mph 1020.7mb 25f
6:10am 18 23 mph 1020.7mb 25f
6:00am 18 24 mph 1020mb 25f
5:50am 18 24 mph 1020mb 25f
5:40am 18 25 mph 1020.7mb 25f
5:30am 21 24 mph 1020.7mb 25f
5:20am 17 24 mph 1020mb 25f
5:12am 16 26 mph 1020.3mb 25f
5:10am 20 23 mph 1020.7mb 25f
5:00am 18 25 mph 1021mb 25f
4:50am 18 26 mph 1021mb 25f
4:40am 18 24 mph 1020.3mb 25f
4:30am 18 24 mph 1020.7mb 25f
4:20am 18 24 mph 1021mb 25f
4:12am 20 24 mph 1021mb 25f
4:10am 16 24 mph 1021.3mb 25f
4:00am 17 23 mph 1020.3mb 25f
3:50am 16 22 mph 1021mb 25f
3:40am 16 20 mph 1021.3mb 25f
3:30am 17 21 mph 1021mb 25f
3:20am 16 21 mph 1020.7mb 24f
3:11am 17 22 mph 1020.7mb 24f
3:10am 17 22 mph 1021.7mb 24f
3:00am 17 22 mph 1021.7mb 24f
2:50am 17 21 mph 1021mb 24f
2:40am 16 20 mph 1021.7mb 24f
2:30am 16 22 mph 1022mb 24f
2:20am 15 20 mph 1021.3mb 24f
2:11am 14 21 mph 1022mb 24f
2:10am 14 21 mph 1021.7mb 24f
2:00am 15 18 mph 1022.4mb 24f
1:50am 16 18 mph 1021.7mb 24f
1:40am 15 18 mph 1022.7mb 24f
1:30am 14 17 mph 1022.7mb 24f
1:20am 14 17 mph 1022.4mb 24f
1:11am 13 18 mph 1022.4mb 24f
1:10am 13 16 mph 1023mb 24f
1:00am 11 17 mph 1022.4mb 24f
12:50am 14 18 mph 1023.4mb 24f
12:40am 14 17 mph 1022.7mb 23f
12:30am 7 11 mph 1023.7mb 18f
12:20am 7 13 mph 1023.7mb 16f
12:10am 6 13 mph 1023.4mb 17f
12:00am 7 11 mph 1023.7mb 17f
Thu 02/11 11:50pm 6 13 mph 1024mb 16f
11:40pm 7 10 mph 1024.7mb 16f
11:30pm 7 13 mph 1024mb 15f
11:20pm 7 10 mph 1024.7mb 15f
11:10pm 6 18 mph 1024mb 15f
11:00pm 5 18 mph 1025.1mb 18f
10:50pm 13 18 mph 1024.7mb 17f
10:40pm 7 11 mph 1024.7mb 18f
10:30pm 9 11 mph 1024.4mb 18f
10:20pm 6 13 mph 1025.4mb 17f
10:10pm 6 11 mph 1024.7mb 17f
10:09pm 7 11 mph 1025.4mb 17f
10:00pm 5 9 mph 1025.4mb 16f
9:50pm 5 10 mph 1024.7mb 16f
9:40pm 6 11 mph 1025.7mb 15f
9:30pm 7 11 mph 1024.7mb 15f
9:20pm 5 11 mph 1025.7mb 15f
9:10pm 7 11 mph 1024.7mb 15f
9:09pm 6 13 mph 1025.4mb 15f
9:00pm 5 8 mph 1025.4mb 15f
8:50pm 6 8 mph 1025.7mb 15f
8:40pm 5 9 mph 1025.1mb 17f
8:30pm 8 11 mph 1025.7mb 21f
8:20pm 9 13 mph 1025.7mb 21f
8:10pm 7 11 mph 1025.1mb 21f
8:09pm 7 15 mph 1025.7mb 21f
8:00pm 6 13 mph 1025.4mb 21f
7:50pm 8 15 mph 1025.7mb 21f
7:40pm 7 14 mph 1025.1mb 20f
7:30pm 10 14 mph 1025.1mb 20f
7:20pm 6 10 mph 1025.7mb 20f
7:10pm 9 13 mph 1025.4mb 20f
7:08pm 8 14 mph 1025.1mb 20f
7:00pm 10 13 mph 1025.4mb 20f
6:50pm 9 11 mph 1026.1mb 20f
6:40pm 6 13 mph 1025.7mb 20f
6:30pm 10 14 mph 1025.7mb 20f
6:20pm 6 14 mph 1026.4mb 20f
6:10pm 9 13 mph 1025.7mb 20f
6:08pm 9 16 mph 1025.4mb 20f
6:00pm 9 10 mph 1025.7mb 20f
5:50pm 7 13 mph 1026.4mb 20f
5:40pm 8 13 mph 1025.7mb 20f
5:30pm 10 13 mph 1025.4mb 20f
5:20pm 10 15 mph 1026.4mb 20f
5:10pm 13 16 mph 1026.1mb 21f
5:07pm 8 15 mph 1026.4mb 20f
5:00pm 8 13 mph 1025.4mb 20f
4:50pm 10 14 mph 1025.4mb 21f
4:40pm 10 15 mph 1026.1mb 21f
4:30pm 11 15 mph 1025.4mb 21f
4:20pm 9 13 mph 1025.4mb 21f
4:10pm 6 8 mph 1025.7mb 21f
4:07pm 5 15 mph 1025.1mb 20f
4:00pm 6 13 mph 1025.7mb 20f
3:50pm 10 13 mph 1025.4mb 20f
3:40pm 13 15 mph 1025.4mb 21f
3:30pm 8 13 mph 1025.1mb 20f
3:20pm 9 15 mph 1025.7mb 20f
3:10pm 9 15 mph 1025.7mb 21f
3:07pm 10 17 mph 1025.1mb 21f
3:00pm 9 15 mph 1024.7mb 21f
2:50pm 13 15 mph 1024.7mb 21f
2:40pm 11 15 mph 1025.7mb 21f
2:30pm 11 17 mph 1025.7mb 21f
2:20pm 11 17 mph 1025.1mb 20f
2:10pm 10 13 mph 1025.1mb 21f
2:06pm 8 17 mph 1025.7mb 21f
2:00pm 13 17 mph 1025.4mb 21f
1:50pm 10 15 mph 1025.7mb 22f
1:40pm 11 14 mph 1025.7mb 21f
1:30pm 10 16 mph 1025.7mb 21f
1:20pm 11 14 mph 1025.1mb 21f
1:10pm 10 15 mph 1025.7mb 20f
1:06pm 10 17 mph 1025.7mb 20f
1:00pm 8 14 mph 1026.1mb 20f
12:50pm 10 14 mph 1025.7mb 20f
12:40pm 11 14 mph 1025.1mb 20f
12:30pm 11 15 mph 1025.7mb 20f
12:20pm 9 17 mph 1025.7mb 20f
12:10pm 11 16 mph 1026.1mb 21f
12:05pm 11 17 mph 1025.7mb 20f
12:00pm 10 17 mph 1025.7mb 20f
11:50am 10 15 mph 1025.1mb 21f
11:40am 11 16 mph 1025.4mb 21f
11:30am 11 15 mph 1025.4mb 21f
11:20am 11 16 mph 1025.7mb 21f
11:10am 11 15 mph 1025.1mb 21f
11:05am 11 21 mph 1025.1mb 21f
11:00am 13 16 mph 1025.1mb 21f
10:50am 13 16 mph 1025.4mb 20f
10:40am 14 20 mph 1026.1mb 20f
10:30am 11 18 mph 1025.1mb 20f
10:20am 16 21 mph 1025.1mb 20f
10:10am 17 21 mph 1025.7mb 21f
10:05am 15 23 mph 1025.7mb 21f
10:00am 16 20 mph 1025.4mb 21f
9:50am 16 21 mph 1024.4mb 21f
9:40am 16 18 mph 1025.4mb 20f
9:30am 16 22 mph 1025.1mb 20f
9:20am 20 23 mph 1024.4mb 21f
9:10am 13 18 mph 1024.7mb 21f
9:04am 13 22 mph 1024.7mb 21f
9:00am 11 18 mph 1025.1mb 21f
8:04am 15 21 mph 1023.7mb 21f
8:00am 17 21 mph 1024mb 21f
7:50am 15 20 mph 1023.7mb 20f
7:03am 14 22 mph 1023.7mb 20f
7:00am 14 21 mph 1023mb 20f
6:50am 17 22 mph 1023.7mb 20f
6:03am 16 25 mph 1023.4mb 19f
6:00am 18 24 mph 1023.4mb 19f
5:50am 16 24 mph 1023mb 20f
5:40am 16 22 mph 1022.7mb 20f
5:30am 17 25 mph 1023mb 20f
5:20am 14 23 mph 1022.4mb 19f
5:10am 18 24 mph 1022.4mb 20f
5:03am 17 26 mph 1022.4mb 20f
5:00am 18 24 mph 1022.7mb 20f
4:50am 20 23 mph 1022.4mb 20f
4:40am 18 24 mph 1021.3mb 20f
4:30am 22 26 mph 1021.7mb 21f
4:20am 15 22 mph 1021.7mb 20f
4:10am 20 23 mph 1021mb 21f
4:02am 15 25 mph 1021mb 20f
4:00am 16 21 mph 1021.3mb 20f
3:50am 17 23 mph 1021.3mb 20f
3:40am 16 25 mph 1021mb 20f
3:30am 13 20 mph 1021.3mb 20f
3:20am 17 21 mph 1020.7mb 20f
3:10am 14 20 mph 1021.3mb 20f
3:02am 14 24 mph 1020.7mb 19f
3:00am 10 21 mph 1021mb 19f
2:50am 18 23 mph 1020.7mb 20f
2:40am 20 24 mph 1021mb 21f
2:30am 14 21 mph 1021mb 21f
2:20am 17 23 mph 1020mb 21f
2:10am 18 25 mph 1020.7mb 21f
2:01am 17 25 mph 1020.7mb 21f
2:00am 17 25 mph 1020.3mb 21f
1:50am 17 23 mph 1020.3mb 20f
1:40am 18 22 mph 1020.7mb 20f
1:30am 15 22 mph 1019.6mb 19f
1:20am 21 23 mph 1020.7mb 20f
1:10am 17 23 mph 1019.6mb 20f
1:01am 20 22 mph 1020.3mb 20f
1:00am 20 22 mph 1020.3mb 20f
12:50am 16 18 mph 1020.3mb 20f
12:40am 17 21 mph 1019.6mb 20f
12:30am 13 17 mph 1020.3mb 20f
12:20am 14 20 mph 1019.6mb 20f
12:10am 15 21 mph 1020.3mb 20f
12:01am 14 23 mph 1020.3mb 20f
12:00am 14 21 mph 1019.6mb 20f
Wed 02/10 11:50pm 15 18 mph 1020.3mb 20f
11:40pm 15 23 mph 1020mb 20f
11:30pm 14 20 mph 1019.6mb 20f
11:20pm 16 18 mph 1020.3mb 20f
11:10pm 14 21 mph 1019.3mb 20f
11:00pm 16 21 mph 1020.3mb 20f
10:50pm 15 20 mph 1020.3mb 20f
10:40pm 14 18 mph 1019.6mb 20f
10:30pm 15 21 mph 1020.3mb 20f
10:20pm 16 22 mph 1020mb 20f
10:10pm 11 20 mph 1020mb 20f
10:00pm 14 18 mph 1020mb 20f
9:50pm 14 20 mph 1019.3mb 20f
9:40pm 14 17 mph 1020mb 19f
9:30pm 14 18 mph 1019.6mb 20f
9:20pm 16 23 mph 1019mb 20f
9:10pm 13 20 mph 1019.6mb 19f
9:00pm 17 20 mph 1019mb 19f
8:59pm 15 23 mph 1019.6mb 19f
8:50pm 14 20 mph 1019mb 19f
8:40pm 17 22 mph 1019.6mb 19f
8:30pm 17 21 mph 1019mb 19f
8:20pm 15 20 mph 1019.3mb 19f
8:10pm 17 23 mph 1019.6mb 19f
8:00pm 20 23 mph 1018.6mb 20f
7:59pm 17 23 mph 1019mb 20f
7:50pm 13 17 mph 1019.3mb 19f
7:40pm 15 18 mph 1019.3mb 19f
7:30pm 13 20 mph 1018.6mb 19f
7:20pm 16 20 mph 1019.3mb 19f
7:10pm 14 21 mph 1019mb 19f
7:00pm 16 21 mph 1018.6mb 19f
6:58pm 14 28 mph 1019mb 19f
6:50pm 18 24 mph 1019mb 19f
6:40pm 15 21 mph 1018.3mb 19f
6:30pm 20 24 mph 1019mb 19f
6:20pm 15 20 mph 1019mb 20f
6:10pm 16 28 mph 1017.9mb 19f
6:00pm 14 20 mph 1018.6mb 19f
5:58pm 15 28 mph 1018.3mb 20f
5:50pm 17 22 mph 1017.6mb 19f
5:40pm 15 20 mph 1018.3mb 19f
5:30pm 15 21 mph 1018.3mb 19f
5:20pm 13 22 mph 1017.3mb 19f
5:10pm 14 28 mph 1017.9mb 20f
5:00pm 11 21 mph 1017.3mb 18f
4:58pm 14 23 mph 1017.6mb 18f
4:50pm 17 21 mph 1016.6mb 19f
4:40pm 16 22 mph 1017.3mb 19f
4:30pm 16 22 mph 1016.9mb 19f
4:20pm 18 23 mph 1016.6mb 19f
4:10pm 17 22 mph 1017.3mb 19f
4:00pm 20 23 mph 1016.6mb 19f
3:57pm 20 24 mph 1016.6mb 19f
3:50pm 18 22 mph 1015.9mb 19f
3:40pm 17 22 mph 1016.6mb 19f
3:30pm 20 24 mph 1016.6mb 20f
3:20pm 20 24 mph 1015.6mb 20f
3:10pm 17 22 mph 1016.3mb 20f
3:00pm 16 22 mph 1015.9mb 19f
2:57pm 18 24 mph 1015.9mb 20f
2:50pm 18 23 mph 1015.6mb 19f
2:40pm 20 24 mph 1015.6mb 19f
2:30pm 18 24 mph 1015.9mb 19f
2:20pm 20 23 mph 1015.6mb 19f
2:10pm 18 24 mph 1014.9mb 20f
2:00pm 18 23 mph 1015.2mb 20f
1:56pm 18 25 mph 1015.6mb 20f
1:50pm 18 23 mph 1015.6mb 20f
1:40pm 17 23 mph 1014.6mb 19f
1:30pm 17 24 mph 1014.6mb 20f
1:20pm 16 21 mph 1015.2mb 20f
1:10pm 18 25 mph 1014.9mb 19f
1:00pm 16 21 mph 1014.9mb 19f
12:56pm 17 25 mph 1015.2mb 20f
12:50pm 18 22 mph 1015.2mb 20f
12:40pm 18 23 mph 1015.2mb 20f
12:30pm 16 24 mph 1014.6mb 20f
12:20pm 18 22 mph 1015.2mb 20f
12:10pm 17 25 mph 1015.6mb 20f
12:00pm 16 23 mph 1014.6mb 19f
11:56am 17 26 mph 1014.6mb 20f
11:50am 14 22 mph 1015.2mb 19f
11:40am 16 24 mph 1015.6mb 20f
11:30am 18 23 mph 1015.2mb 20f
11:20am 20 26 mph 1015.6mb 20f
11:10am 21 26 mph 1015.9mb 20f
11:00am 18 24 mph 1014.9mb 20f
10:55am 20 28 mph 1014.9mb 20f
10:50am 17 25 mph 1015.2mb 20f
10:40am 18 25 mph 1015.6mb 21f
10:30am 20 26 mph 1015.2mb 20f
10:20am 22 28 mph 1014.9mb 20f
10:10am 18 26 mph 1015.6mb 20f
10:00am 20 23 mph 1015.9mb 21f
9:55am 18 26 mph 1015.6mb 20f
9:50am 18 23 mph 1014.9mb 20f
9:40am 21 26 mph 1014.6mb 20f
9:30am 17 26 mph 1015.2mb 20f
9:20am 18 26 mph 1015.6mb 20f
9:10am 20 26 mph 1014.2mb 21f
9:00am 23 26 mph 1014.9mb 21f
8:54am 20 28 mph 1014.2mb 20f
8:50am 18 26 mph 1014.9mb 20f
8:40am 20 28 mph 1014.2mb 21f
8:30am 21 25 mph 1014.6mb 21f
8:20am 18 23 mph 1014.6mb 21f
8:10am 16 25 mph 1013.9mb 20f
8:00am 20 23 mph 1013.9mb 21f
7:54am 17 29 mph 1013.5mb 21f
7:50am 17 25 mph 1014.2mb 21f
7:40am 22 25 mph 1013.5mb 21f
7:30am 20 26 mph 1013.2mb 20f
7:20am 22 29 mph 1013.9mb 21f
7:10am 15 28 mph 1013.2mb 20f
7:00am 21 24 mph 1013.2mb 21f
6:54am 21 29 mph 1012.9mb 21f
6:50am 21 25 mph 1013.5mb 21f
6:40am 20 26 mph 1013.2mb 21f
6:30am 18 26 mph 1013.2mb 22f
6:20am 20 25 mph 1013.5mb 21f
6:10am 22 29 mph 1013.2mb 22f
6:00am 22 29 mph 1012.9mb 21f
5:53am 22 29 mph 1013.5mb 22f
5:50am 20 25 mph 1013.2mb 22f
5:40am 21 26 mph 1013.5mb 22f
5:30am 21 28 mph 1012.9mb 22f
5:20am 21 28 mph 1012.5mb 22f
5:10am 22 30 mph 1013.2mb 22f
5:00am 23 29 mph 1012.9mb 22f
4:53am 22
mph
1012.2mb 22f
4:50am 23 29 mph 1012.2mb 22f
4:40am 24 30 mph 1012.5mb 22f
4:30am 24 31 mph 1012.9mb 22f
4:25am 22 30 mph 1012.2mb 22f
4:20am 23 29 mph 1011.9mb 22f
4:10am 22 29 mph 1011.9mb 22f
4:00am 23 30 mph 1012.9mb 22f
3:52am 23
mph
1011.9mb 22f
3:50am 23 30 mph 1011.9mb 22f
3:40am 24 31 mph 1011.9mb 23f
3:30am 24 31 mph 1012.2mb 22f
3:24am 23 31 mph 1011.9mb 23f
3:20am 25 29 mph 1011.9mb 23f
3:10am 23 31 mph 1011.5mb 23f
3:00am 23 31 mph 1011.9mb 23f
2:52am 26
mph
1012.5mb 23f
2:50am 24 30 mph 1012.2mb 23f
2:40am 23 32 mph 1011.9mb 23f
2:30am 23 30 mph 1011.5mb 23f
2:20am 25 30 mph 1011.5mb 23f
2:16am 24 30 mph 1011.9mb 23f
2:10am 24 31 mph 1011.9mb 23f
2:00am 24 31 mph 1011.9mb 23f
1:50am 25 30 mph 1011.2mb 23f
1:40am 22 30 mph 1011.2mb 23f
1:30am 26 31 mph 1011.5mb 23f
1:20am 23 32 mph 1011.9mb 23f
1:11am 22 30 mph 1011.5mb 23f
1:10am 22 28 mph 1010.8mb 23f
1:00am 24 31 mph 1011.2mb 23f
12:51am 22
mph
1011.9mb 24f
12:50am 22 29 mph 1011.5mb 24f
12:40am 21 26 mph 1011.5mb 24f
12:30am 22 26 mph 1010.5mb 24f
12:20am 23 30 mph 1011.5mb 24f
12:10am 23 31 mph 1011.5mb 23f
12:04am 23 29 mph 1011.9mb 24f
12:00am 20 26 mph 1010.8mb 24f
Tue 02/09 11:51pm 22
mph
1011.2mb 24f
11:50pm 22 28 mph 1011.5mb 24f
11:40pm 22 30 mph 1011.9mb 24f
11:30pm 23 28 mph 1011.9mb 24f
11:20pm 22 30 mph 1011.5mb 24f
11:10pm 23 30 mph 1010.8mb 24f
11:01pm 23 30 mph 1011.5mb 24f
11:00pm 23 32 mph 1011.5mb 24f
10:50pm 24
mph
1011.9mb 24f
10:40pm 20 30 mph 1011.9mb 23f
10:30pm 23 29 mph 1011.2mb 24f
10:20pm 23 28 mph 1010.8mb 24f
10:10pm 25 30 mph 1011.2mb 24f
10:00pm 21 29 mph 1012.2mb 24f
9:52pm 22 29 mph 1011.5mb 24f
9:50pm 21 28 mph 1011.9mb 24f
9:40pm 23 29 mph 1011.2mb 24f
9:30pm 23 26 mph 1011.2mb 24f
9:20pm 23 26 mph 1011.9mb 24f
9:10pm 21 28 mph 1011.9mb 24f
9:00pm 23 28 mph 1011.5mb 24f
8:50pm 23 29 mph 1011.2mb 24f
8:49pm 22
mph
1011.2mb 24f
8:40pm 21 26 mph 1011.5mb 25f
8:30pm 20 26 mph 1011.9mb 24f
8:20pm 20 26 mph 1011.9mb 24f
8:10pm 20 25 mph 1011.5mb 24f
8:00pm 21 26 mph 1011.2mb 24f
7:50pm 22 28 mph 1011.9mb 24f
7:49pm 22 28 mph 1011.9mb 24f
7:40pm 22 26 mph 1011.9mb 24f
7:30pm 22 28 mph 1011.9mb 24f
7:20pm 20 24 mph 1011.2mb 24f
7:10pm 21 25 mph 1011.5mb 24f
7:00pm 22 26 mph 1011.9mb 24f
6:50pm 21 26 mph 1012.2mb 24f
6:48pm 20 26 mph 1012.2mb 24f
6:40pm 22 26 mph 1011.9mb 24f
6:30pm 20 24 mph 1011.2mb 24f
6:20pm 22 25 mph 1011.9mb 24f
6:10pm 20 26 mph 1012.2mb 24f
6:00pm 20 26 mph 1011.9mb 24f
5:50pm 22 25 mph 1011.2mb 24f
5:48pm 21 26 mph 1011.2mb 24f
5:40pm 22 26 mph 1011.5mb 24f
5:30pm 20 24 mph 1011.5mb 24f
5:20pm 21 24 mph 1011.2mb 24f
5:10pm 18 24 mph 1010.5mb 24f
5:00pm 20 25 mph 1010.5mb 24f
4:50pm 20 25 mph 1010.5mb 24f
4:48pm 20 26 mph 1010.8mb 24f
4:40pm 22 25 mph 1011.2mb 24f
4:30pm 20 24 mph 1010.8mb 24f
4:20pm 21 25 mph 1009.8mb 24f
4:10pm 18 24 mph 1009.8mb 24f
4:00pm 20 26 mph 1010.5mb 24f
3:50pm 21 25 mph 1010.5mb 24f
3:47pm 21 29 mph 1010.2mb 24f
3:40pm 20 25 mph 1010.2mb 24f
3:30pm 21 25 mph 1009.8mb 24f
3:20pm 22 26 mph 1009.5mb 24f
3:10pm 20 29 mph 1009.5mb 24f
3:00pm 20 26 mph 1009.8mb 24f
2:50pm 21 25 mph 1009.8mb 24f
2:47pm 20 26 mph 1009.1mb 24f
2:40pm 20 26 mph 1009.5mb 24f
2:30pm 21 24 mph 1008.5mb 25f
2:20pm 20 25 mph 1008.8mb 24f
2:10pm 21 24 mph 1009.1mb 24f
2:00pm 21 25 mph 1009.1mb 24f
1:50pm 20 26 mph 1008.8mb 24f
1:46pm 20 26 mph 1008.5mb 24f
1:40pm 20 26 mph 1008.1mb 24f
1:30pm 22 25 mph 1008.1mb 24f
1:20pm 20 24 mph 1007.8mb 24f
1:10pm 21 26 mph 1008.1mb 24f
1:00pm 21 25 mph 1008.5mb 24f
12:50pm 21 24 mph 1008.8mb 24f
12:46pm 20 24 mph 1007.8mb 25f
12:40pm 17 23 mph 1008.5mb 24f
12:30pm 20 23 mph 1008.1mb 25f
12:20pm 17 22 mph 1007.8mb 25f
12:10pm 18 23 mph 1008.1mb 25f
12:00pm 18 23 mph 1008.5mb 25f
11:50am 18 23 mph 1008.8mb 25f
11:46am 18 28 mph 1008.5mb 25f
11:40am 18 21 mph 1008.5mb 25f
11:30am 18 23 mph 1008.1mb 25f
11:20am 20 25 mph 1008.1mb 25f
11:10am 21 25 mph 1008.8mb 25f
11:00am 22 25 mph 1008.8mb 25f
10:50am 21 28 mph 1008.8mb 25f
10:45am 22 26 mph 1008.1mb 26f
10:40am 23 26 mph 1008.1mb 25f
10:30am 20 24 mph 1008.1mb 26f
10:20am 21 25 mph 1008.5mb 26f
10:10am 23 25 mph 1008.5mb 26f
10:00am 21 26 mph 1008.1mb 26f
9:50am 22 26 mph 1007.5mb 26f
9:45am 21 28 mph 1007.5mb 26f
9:40am 22 28 mph 1007.5mb 26f
9:30am 21 25 mph 1007.8mb 26f
9:20am 21 25 mph 1008.1mb 27f
9:10am 22 25 mph 1007.8mb 27f
9:00am 22 24 mph 1007.8mb 27f
8:50am 20 24 mph 1007.8mb 27f
8:44am 22 28 mph 1007.5mb 27f
8:40am 21 26 mph 1007.5mb 27f
8:30am 22 24 mph 1007.1mb 27f
8:20am 21 25 mph 1006.8mb 27f
8:10am 22 28 mph 1006.8mb 27f
8:00am 22 25 mph 1006.8mb 28f
7:50am 22 28 mph 1007.5mb 28f
7:44am 21 29 mph 1006.8mb 28f
7:40am 21 26 mph 1007.5mb 28f
7:30am 20 26 mph 1007.1mb 28f
7:20am 22 29 mph 1007.1mb 28f
7:10am 23 28 mph 1006.4mb 28f
7:00am 23 28 mph 1006.1mb 28f
6:50am 22 28 mph 1006.1mb 28f
6:44am 23
mph
1006.8mb 28f
6:40am 24 29 mph 1006.4mb 28f
6:30am 25 30 mph 1006.4mb 29f
6:20am 22 29 mph 1006.4mb 29f
6:10am 26 30 mph 1006.1mb 29f
6:00am 24 29 mph 1006.1mb 29f
5:50am 22 30 mph 1005.4mb 29f
5:47am 23 30 mph 1005.8mb 29f
5:40am 22 26 mph 1005.1mb 30f
5:30am 21 26 mph 1004.7mb 30f
5:20am 24 28 mph 1005.1mb 30f
5:10am 23 29 mph 1005.4mb 30f
5:00am 24 28 mph 1005.4mb 30f
4:50am 23 28 mph 1005.4mb 30f
4:43am 23
mph
1005.1mb 30f
4:40am 22 26 mph 1004.7mb 30f
4:30am 23 31 mph 1004.4mb 30f
4:20am 24 26 mph 1004.1mb 30f
4:10am 24 30 mph 1004.1mb 30f
4:01am 22 30 mph 1005.1mb 30f
4:00am 22 28 mph 1004.1mb 30f
3:50am 23 26 mph 1004.1mb 31f
3:42am 23 28 mph 1004.7mb 31f
3:40am 23 28 mph 1003.7mb 31f
3:30am 22 26 mph 1004.1mb 31f
3:20am 21 26 mph 1004.1mb 31f
3:10am 20 25 mph 1004.4mb 31f
3:00am 21 25 mph 1004.4mb 31f
2:50am 20 24 mph 1004.4mb 31f
2:42am 20 24 mph 1004.1mb 31f
2:40am 21 24 mph 1004.7mb 31f
2:30am 17 23 mph 1004.7mb 31f
2:20am 21 24 mph 1004.7mb 31f
2:10am 18 23 mph 1004.7mb 31f
2:00am 18 22 mph 1004.7mb 31f
1:50am 18 23 mph 1004.7mb 31f
1:41am 21 25 mph 1004.1mb 31f
1:40am 21 24 mph 1004.7mb 31f
1:30am 18 25 mph 1004.4mb 31f
1:20am 20 25 mph 1004.1mb 30f
1:10am 21 24 mph 1004.4mb 30f
1:00am 18 25 mph 1004.7mb 31f
12:50am 18 25 mph 1005.1mb 30f
12:41am 20 28 mph 1004.7mb 30f
12:40am 20 24 mph 1005.1mb 30f
12:30am 18 24 mph 1004.4mb 30f
12:20am 20 25 mph 1004.4mb 30f
12:10am 20 26 mph 1004.4mb 30f
12:00am 18 25 mph 1005.1mb 30f
Mon 02/08 11:50pm 21 28 mph 1005.4mb 30f
11:41pm 21 25 mph 1005.4mb 31f
11:40pm 21 25 mph 1005.4mb 31f
11:30pm 18 25 mph 1005.1mb 30f
11:20pm 20 24 mph 1004.7mb 30f
11:10pm 18 23 mph 1005.1mb 30f
11:00pm 16 22 mph 1005.4mb 30f
10:50pm 18 23 mph 1005.4mb 30f
10:40pm 18 21 mph 1005.8mb 31f
10:30pm 14 18 mph 1005.1mb 30f
10:20pm 17 20 mph 1004.7mb 30f
10:10pm 16 20 mph 1004.7mb 30f
10:00pm 17 21 mph 1005.1mb 30f
9:50pm 16 20 mph 1005.4mb 30f
9:40pm 15 20 mph 1005.4mb 30f
9:30pm 16 18 mph 1005.8mb 30f
9:20pm 16 20 mph 1006.1mb 30f
9:10pm 17 20 mph 1006.1mb 30f
9:00pm 15 20 mph 1006.4mb 31f
8:50pm 16 20 mph 1006.4mb 31f
8:40pm 16 20 mph 1006.4mb 31f
8:39pm 15 20 mph 1005.8mb 30f
8:30pm 16 20 mph 1006.4mb 30f
8:20pm 15 18 mph 1006.4mb 30f
8:10pm 14 17 mph 1006.4mb 30f
8:00pm 16 18 mph 1006.1mb 30f
7:50pm 14 17 mph 1006.1mb 30f
7:40pm 14 20 mph 1006.1mb 30f
7:39pm 14 20 mph 1006.4mb 30f
7:30pm 16 18 mph 1006.1mb 30f
7:20pm 16 20 mph 1006.1mb 30f
7:10pm 15 18 mph 1006.4mb 30f
7:00pm 15 18 mph 1006.8mb 30f
6:50pm 14 17 mph 1006.8mb 30f
6:40pm 14 18 mph 1007.1mb 30f
6:39pm 15 20 mph 1007.1mb 30f
6:30pm 13 20 mph 1007.1mb 30f
6:20pm 16 20 mph 1006.8mb 30f
6:10pm 15 18 mph 1006.8mb 30f
6:00pm 16 18 mph 1006.1mb 30f
5:50pm 14 17 mph 1006.1mb 30f
5:40pm 15 20 mph 1006.1mb 30f
5:38pm 16 21 mph 1006.8mb 30f
5:30pm 17 21 mph 1005.8mb 31f
5:20pm 16 20 mph 1006.1mb 31f
5:10pm 16 20 mph 1006.1mb 31f
5:00pm 16 18 mph 1006.1mb 31f
4:50pm 14 18 mph 1006.1mb 31f
4:40pm 15 18 mph 1006.1mb 31f
4:38pm 15 20 mph 1005.4mb 31f
4:30pm 16 18 mph 1006.1mb 31f
4:20pm 15 20 mph 1005.8mb 31f
4:10pm 16 18 mph 1005.4mb 32f
4:00pm 14 17 mph 1005.4mb 32f
3:50pm 11 15 mph 1005.1mb 32f
3:40pm 13 16 mph 1005.1mb 32f
3:37pm 14 17 mph 1005.1mb 32f
3:30pm 15 17 mph 1005.1mb 32f
3:20pm 14 16 mph 1004.7mb 32f
3:10pm 13 17 mph 1004.4mb 33f
3:00pm 13 16 mph 1004.4mb 33f
2:50pm 14 17 mph 1004.4mb 33f